Showing default

TELSTAR 401, 22927

Orbit data source: Space-Track

TELSTAR 401, 22927 is a payload satellite owned by AT&T Skynet (US) in GEO that was launched on Thu, 16 Dec 1993 UTC via an ATLAS IIAS launch vehicle from the Air Force Eastern Test Range (AFETR). Payload-class satellites include a variety of spacecraft equipped with specific instruments for various scientific and technological missions. These include communications satellites like Starlink; space stations such as the ISS; scientific satellites like the Hubble; Earth observation satellites from companies like Planet Labs, Umbra, and HawkEye 360; GPS; miniature CubeSats for education and research; and military/defense satellites.

Loading next visibility...
Identifier
22927, 1993-077A
Orbit
GEO
Country
Flag of USUS
Related business
Manufacturer
MM/East Windsor
Mission
Non-operational Commercial Communications
Bus & Motor
AS7000, 2X LEROS 1B
Mass
3,375 kg wet, ~1,500 kg dry
Launch date (UTC)
1993-12-16 (33 years ago)
Launch vehicle
ATLAS IIAS
Launch site
Air Force Eastern Test Range (AFETR)
Object type
Payload
Rocket body
Debris
Shape & HBR
Hex Poly + 2 Pan, 12.2 m
Radar Cross Section
35.653 m², Large (>1 m²)

Expand to show TLE details & history
Last TLE update: 14 hours ago

TLE from 14 hours ago
0 TELSTAR 401
1 22927U 93077A   26194.50578334 -.00000115  00000-0  00000-0 0  9993
2 22927  14.4444 350.6601 0009388 147.2145 229.0872  1.00287029118849
Epoch: 2026-07-13T12:08Z
TLE epoch observation values (Epoch: 2026-07-13T12:08:19.680Z)
Latitude
3.99534°
Longitude
-107.0812°
Altitude
35,807.318 km
Speed
3.073 km/s
True Right ascension
00h 25m 33s
True Declination
3° 59' 29"
Sunlit
Object was in daylight at epoch
Visualization orbit readout
Latitude
Unknown
Longitude
Unknown
Altitude
Unknown
Speed
Unknown
Apparent Right ascension
Unknown
Apparent Declination
Unknown
Sunlit
N/A
Visualization observer readout
Local Sidereal Time
14:06:43
Azimuth
Unknown
Elevation
Unknown
Doppler factor
Unknown
Orbital elements
Apogee altitude
35,822.876 km
Perigee altitude
35,743.714 km
Semi-major axis
42,161.432 km
Eccentricity
0.00094
Inclination
14.4444°
RAAN
350.6601°
Arg. of periapsis
147.2145°
True anomaly
229.00596°
Mean anomaly
229.0872°
Eccentric anomaly
229.04658°
Mean motion
0.25071 °/min
Orbital period
1,435.93 mins
BSTAR
0
Loading maneuver chart data...
Computing Atmospheric mass density...
Loading historical data...
Loading historical data...
Loading historical data...
Loading historical data...
Loading historical data...
Loading historical data...
Loading historical data...
Other satellites on launch #77 in the year 1993 (1993-12-16 UTC)

Documentation

Showing up to 5 results
|